DECAYED

FREGAT DEB, 46018 (Decayed)

Orbit data source: Space-Track

FREGAT DEB, 46018 was space debris in LEO originally from a launch on Mon, 18 Jul 2011 UTC launched from the Tyuratam Missile And Space Complex (TTMTR). Debris objects in space refer to the collection of defunct objects orbiting the Earth. Examples of debris include non-operational satellites, rocket bodies, and fragments generated from explosions, collisions, or faulty payload assembly.

Not visible in the next 10 days
Identifier
46018, 2011-037HV
Orbit
Decayed
Last TLE update
7 months ago
Origin
Manufacturer
Lavochkin
Mission
Decayed spacecraft
Bus & Motor
Unknown
Mass
Unknown
Launch date (UTC)
2011-07-18 (14 years ago)
Launch vehicle
Unknown
Launch site
Tyuratam Missile And Space Complex (TTMTR)
Object type
Payload
Rocket body
Debris
Shape & HBR
Unknown
Radar Cross Section
Small (<0.1 m²)

Expand to show TLE details & history

TLE from 7 months ago
0 FREGAT DEB
1 46018U 11037HV  24294.63199390  .07580967  00000-0  81940-1 0  9997
2 46018  51.2983  29.8211 0121727 345.5138  14.2368 15.50140591186731
Epoch: 2024-10-20T15:10Z
Definitive object data (Epoch: 2024-10-20T15:10:04.272Z)
Latitude
-0.00006°
Longitude
132.73302°
Altitude
336.918 km
Speed
7.753 km/s
True Right ascension
01h 59m 17s
True Declination
0° 00' 00"
Sunlit
Object was in full shadow at TLE epoch
Visualization observer readout
Visualization observer readout
Orbital elements
Apogee altitude
499.594 km
Perigee altitude
334.166 km
Semi-major axis
6,795.017 km
Eccentricity
0.0121727
Inclination
51.2983°
RAAN
29.8211°
Arg. of periapsis
345.5138°
True anomaly
14.58497°
Mean anomaly
14.2368°
Eccentric anomaly
14.41037°
Mean motion
3.87487 °/min
BSTAR
0.08194
Orbital period
92.91 mins
Loading maneuver chart data...
Loading SW <> Apogee altitude chart data...
Loading historical data...
Loading historical data...
Loading historical data...
Loading historical data...
Loading historical data...
Loading historical data...
Loading historical data...

FREGAT DEB Visibility forecast

Observer location: undefined°, undefined°

This satellite is decayed
Span
Click to sort rows by Start time (UTC) header in descending order
Start Az.
Max El. time (UTC)
Max El. Az.
Max El.
End time (UTC)
End Az.
|